OPS 4682 DEB, 38378

Orbit data source: Space-Track

OPS 4682 DEB, 38378 is space debris in LEO originally from a launch on Sat, 03 Apr 1965 UTC launched from the Air Force Western Test Range (AFWTR). Debris objects in space refer to the collection of defunct objects orbiting the Earth. Examples of debris include non-operational satellites, rocket bodies, and fragments generated from explosions, collisions, or faulty payload assembly.

Loading next visibility...
Identifier
38378, 1965-027CF
Orbit
LEO
Country
Flag of USUS
Related business
Manufacturer
Unknown
Mission
Spacecraft
Bus & Motor
Unknown
Mass
Unknown
Launch date (UTC)
1965-04-03 (61 years ago)
Launch vehicle
Unknown
Launch site
Air Force Western Test Range (AFWTR)
Object type
Payload
Rocket body
Debris
Shape & HBR
Unknown shape, 0.1 m
Radar Cross Section
Small (<0.1 m²)

Expand to show TLE details & history
Last TLE update: 21 hours ago

TLE from 21 hours ago
0 OPS 4682 DEB
1 38378U 65027CF  25293.84675563 -.00000209  00000-0 -68870-3 0  9999
2 38378  90.2370 334.1038 0037494 104.1279 256.4016 13.03140685587831
Epoch: 2025-10-20T20:19Z
TLE epoch observation values (Epoch: 2025-10-20T20:19:19.686Z)
Latitude
-0.00001°
Longitude
-0.27143°
Altitude
1,259.521 km
Speed
7.222 km/s
True Right ascension
22h 16m 24s
True Declination
0° 00' 00"
Sunlit
Object was in full shadow at epoch
Visualization orbit readout
Latitude
Unknown
Longitude
Unknown
Altitude
Unknown
Speed
Unknown
Apparent Right ascension
Unknown
Apparent Declination
Unknown
Sunlit
N/A
Visualization observer readout
Local Sidereal Time
12:32:44
Azimuth
Unknown
Elevation
Unknown
Doppler factor
Unknown
Orbital elements
Apogee altitude
1,275.518 km
Perigee altitude
1,218.339 km
Semi-major axis
7,625.065 km
Eccentricity
0.00375
Inclination
90.237°
RAAN
334.1038°
Arg. of periapsis
104.1279°
True anomaly
255.98446°
Mean anomaly
256.4016°
Eccentric anomaly
256.19298°
Mean motion
3.2597 °/min
Orbital period
110.44 mins
BSTAR
-0.0006887
Loading maneuver chart data...
Computing Atmospheric mass density...
Loading historical data...
Loading historical data...
Loading historical data...
Loading historical data...
Loading historical data...
Loading historical data...
Loading historical data...

Documentation

Showing up to 5 results
|